Madisonville, KY

10:19 AM CST on November 21, 2017 (GMT -0600)
Madisonville

Weather History for K2I0 - March, 2014

Change the Weather History Date:

Wednesday, March 12, 2014

  Actual Average (KOWB) Record (KOWB)
Temperature  
Mean Temperature 51 °F -  
Max Temperature 68 °F 56 °F 104 °F (2017)
Min Temperature 33 °F 38 °F 11 °F (1960)
Degree Days  
Heating Degree Days 14    
Growing Degree Days 1 (Base 50)    
Moisture  
Dew Point 40 °F    
Average Humidity 78    
Maximum Humidity 94    
Minimum Humidity 61    
Precipitation  
Precipitation 0.06 in - - ()
Sea Level Pressure  
Sea Level Pressure 29.79 in    
Wind  
Wind Speed 17 mph (NW)    
Max Wind Speed 31 mph    
Max Gust Speed 44 mph    
Visibility 10 miles    
Events Rain , Snow    
Averages and records for this station are not official NWS values.
T = Trace of Precipitation, MM = Missing Value Source: NWS Daily Summary

Daily Weather History Graph

Daily Weather History Graph

Search for Another Location

Airport or City:

Trip Planner

Search our weather history database for the weather conditions in past years. The results will help you decide how hot, cold, wet, or windy it might be!

Date:

Astronomy

Mar. 12, 2014 Rise Set
Actual Time 7:05 AM CDT 6:54 PM CDT
Civil Twilight 6:39 AM CDT 7:20 PM CDT
Nautical Twilight 6:08 AM CDT 7:50 PM CDT
Astronomical Twilight 5:38 AM CDT 8:20 PM CDT
Moon 3:27 PM CDT (3/12) 4:32 AM CDT (3/12)
Length of Visible Light 12h 41m
Length of Day
11h 49m
Waxing Gibbous, 85% of the Moon is Illuminated
Mar 12
Waxing Gibbous
Mar 16
Full
Mar 23
Last Quarter
Mar 30
New
Apr 7
First Quarter

Hourly Weather History & Observations

Time (CDT) Temp. Windchill Dew Point Humidity Pressure Visibility Wind Dir Wind Speed Gust Speed Precip Events Conditions
12:15 AM 68.0 °F - 56.7 °F 67% 29.50 in 10.0 mi SW 11.5 mph 19.6 mph N/A   Mostly Cloudy
12:35 AM 68.0 °F - 57.2 °F 68% 29.49 in 10.0 mi SW 13.8 mph 19.6 mph N/A   Overcast
12:55 AM 68.0 °F - 57.4 °F 69% 29.48 in 10.0 mi SW 12.7 mph - N/A   Overcast
1:15 AM 67.3 °F - 57.6 °F 71% 29.48 in 10.0 mi SW 16.1 mph 19.6 mph N/A   Mostly Cloudy
1:35 AM 67.3 °F - 58.1 °F 72% 29.48 in 10.0 mi SW 20.7 mph - N/A   Overcast
1:55 AM 67.1 °F - 58.3 °F 73% 29.47 in 10.0 mi SW 15.0 mph 24.2 mph N/A   Overcast
2:15 AM 66.7 °F - 58.5 °F 75% 29.47 in 10.0 mi SW 20.7 mph - N/A   Overcast
2:35 AM 66.6 °F - 58.5 °F 75% 29.46 in 10.0 mi WSW 19.6 mph 24.2 mph N/A   Overcast
2:55 AM 66.6 °F - 58.5 °F 75% 29.45 in 10.0 mi SW 19.6 mph 25.3 mph N/A   Overcast
3:15 AM 66.4 °F - 58.8 °F 77% 29.44 in 10.0 mi SW 19.6 mph 27.6 mph N/A   Overcast
3:35 AM 66.0 °F - 58.6 °F 77% 29.43 in 10.0 mi SW 19.6 mph - N/A   Overcast
3:55 AM 65.7 °F - 59.0 °F 79% 29.42 in 10.0 mi SW 18.4 mph - N/A   Overcast
4:15 AM 65.1 °F - 58.6 °F 79% 29.42 in 10.0 mi SW 18.4 mph 24.2 mph N/A   Overcast
4:35 AM 65.1 °F - 58.6 °F 79% 29.40 in 10.0 mi SW 18.4 mph 26.5 mph N/A   Overcast
4:55 AM 65.3 °F - 59.0 °F 80% 29.40 in 10.0 mi SW 19.6 mph 25.3 mph N/A   Overcast
5:15 AM 64.0 °F - 59.5 °F 85% 29.40 in 7.0 mi WSW 20.7 mph 26.5 mph N/A Rain Light Rain
5:35 AM 63.9 °F - 59.9 °F 87% 29.42 in 10.0 mi WNW 31.1 mph 41.4 mph 0.02 in Rain Rain
5:55 AM 51.3 °F - 48.4 °F 90% 29.46 in 10.0 mi NW 27.6 mph 39.1 mph 0.06 in Rain Light Rain
6:15 AM 47.1 °F - 45.0 °F 92% 29.50 in 10.0 mi WNW 23.0 mph 33.4 mph N/A   Overcast
6:35 AM 45.7 °F 37.6 °F 43.5 °F 92% 29.53 in 10.0 mi NW 21.9 mph 36.8 mph N/A   Overcast
6:55 AM 44.2 °F 34.6 °F 41.9 °F 91% 29.55 in 10.0 mi WNW 27.6 mph 38.0 mph N/A Rain Rain
7:15 AM 43.2 °F 33.2 °F 40.3 °F 90% 29.58 in 10.0 mi NW 27.6 mph 42.6 mph N/A   Overcast
7:35 AM 42.8 °F 33.5 °F 38.8 °F 86% 29.60 in 10.0 mi NW 23.0 mph 34.5 mph N/A   Overcast
7:55 AM 41.9 °F 33.4 °F 38.3 °F 87% 29.62 in 10.0 mi NW 18.4 mph 35.7 mph N/A   Overcast
8:15 AM 41.9 °F 33.7 °F 38.1 °F 86% 29.65 in 10.0 mi NNW 17.3 mph 33.4 mph N/A   Overcast
8:35 AM 41.9 °F 32.6 °F 37.4 °F 84% 29.66 in 10.0 mi NNW 21.9 mph 36.8 mph N/A   Overcast
8:55 AM 41.9 °F 32.3 °F 36.5 °F 81% 29.68 in 10.0 mi NNW 23.0 mph 34.5 mph N/A   Overcast
9:15 AM 41.9 °F 32.6 °F 36.1 °F 80% 29.70 in 10.0 mi NNW 21.9 mph 32.2 mph N/A   Overcast
9:35 AM 41.4 °F 32.1 °F 36.0 °F 81% 29.72 in 10.0 mi NNW 20.7 mph 31.1 mph N/A   Overcast
9:55 AM 41.2 °F 32.1 °F 35.4 °F 80% 29.75 in 10.0 mi NNW 19.6 mph 43.7 mph N/A   Overcast
10:15 AM 41.2 °F 32.1 °F 36.0 °F 82% 29.77 in 10.0 mi NNW 19.6 mph 31.1 mph N/A   Overcast
10:35 AM 41.4 °F 32.4 °F 36.0 °F 81% 29.79 in 10.0 mi NNW 19.6 mph 28.8 mph N/A   Overcast
10:55 AM 41.0 °F 31.4 °F 35.2 °F 80% 29.80 in 10.0 mi NNW 21.9 mph 29.9 mph N/A   Overcast
11:15 AM 41.0 °F 31.9 °F 34.9 °F 79% 29.82 in 10.0 mi NNW 19.6 mph 34.5 mph N/A   Overcast
11:35 AM 41.2 °F 32.7 °F 35.2 °F 79% 29.83 in 10.0 mi NNW 17.3 mph 25.3 mph N/A   Overcast
11:55 AM 41.7 °F 33.4 °F 35.1 °F 77% 29.85 in 10.0 mi NW 17.3 mph 28.8 mph N/A   Overcast
12:15 PM 41.5 °F 33.2 °F 34.9 °F 77% 29.86 in 10.0 mi NW 17.3 mph 29.9 mph N/A   Overcast
12:35 PM 41.9 °F 32.3 °F 34.7 °F 76% 29.87 in 10.0 mi NNW 23.0 mph 32.2 mph N/A   Overcast
1:15 PM 42.4 °F 34.1 °F 35.2 °F 76% 29.88 in 10.0 mi NNW 18.4 mph 27.6 mph N/A   Overcast
1:35 PM 43.9 °F 35.7 °F 36.3 °F 75% 29.89 in 10.0 mi NNW 19.6 mph 25.3 mph N/A   Overcast
1:55 PM 43.7 °F 35.2 °F 33.6 °F 68% 29.90 in 10.0 mi NNW 20.7 mph 32.2 mph N/A   Overcast
2:15 PM 43.9 °F 36.5 °F 34.5 °F 70% 29.91 in 10.0 mi NNW 16.1 mph 29.9 mph N/A   Overcast
2:35 PM 44.8 °F 36.2 °F 32.7 °F 63% 29.92 in 10.0 mi NNW 23.0 mph 29.9 mph N/A   Mostly Cloudy
2:55 PM 45.3 °F 38.4 °F 34.9 °F 67% 29.93 in 10.0 mi NNW 16.1 mph 24.2 mph N/A   Mostly Cloudy
3:15 PM 43.7 °F 35.0 °F 31.1 °F 61% 29.94 in 10.0 mi NNW 21.9 mph 27.6 mph N/A   Overcast
3:35 PM 42.3 °F 34.4 °F 30.7 °F 64% 29.96 in 10.0 mi North 16.1 mph 29.9 mph N/A   Overcast
3:55 PM 41.9 °F 33.1 °F 30.6 °F 64% 29.97 in 10.0 mi North 19.6 mph 29.9 mph N/A   Overcast
4:15 PM 43.7 °F 37.3 °F 31.1 °F 61% 29.97 in 10.0 mi NNW 12.7 mph 21.9 mph N/A   Mostly Cloudy
4:35 PM 43.2 °F 35.9 °F 30.4 °F 61% 29.98 in 10.0 mi North 15.0 mph 21.9 mph N/A   Mostly Cloudy
4:55 PM 43.3 °F 36.1 °F 32.2 °F 65% 29.98 in 10.0 mi NNE 15.0 mph 23.0 mph N/A   Overcast
5:15 PM 41.2 °F 33.7 °F 32.5 °F 71% 29.99 in 10.0 mi North 13.8 mph 20.7 mph N/A   Overcast
5:35 PM 41.4 °F 32.4 °F 31.8 °F 69% 30.00 in 10.0 mi North 19.6 mph 25.3 mph N/A   Overcast
5:55 PM 39.2 °F 31.2 °F 33.1 °F 79% 30.02 in 10.0 mi North 13.8 mph 24.2 mph N/A   Overcast
6:15 PM 39.4 °F 31.8 °F 32.5 °F 76% 30.03 in 10.0 mi NNW 12.7 mph 24.2 mph N/A   Mostly Cloudy
6:35 PM 39.2 °F 33.0 °F 32.0 °F 75% 30.04 in 10.0 mi NNW 9.2 mph - N/A   Scattered Clouds
6:55 PM 36.7 °F 26.9 °F 32.2 °F 84% 30.06 in 1.0 mi North 17.3 mph 33.4 mph N/A Snow Light Snow
7:15 PM 35.1 °F 29.3 °F 33.6 °F 94% 30.06 in 10.0 mi NNW 6.9 mph - N/A   Mostly Cloudy
7:35 PM 35.6 °F 29.2 °F 32.5 °F 89% 30.06 in 10.0 mi NNW 8.1 mph - N/A   Scattered Clouds
7:55 PM 35.6 °F 29.2 °F 32.2 °F 87% 30.07 in 10.0 mi NNW 8.1 mph - N/A   Scattered Clouds
8:15 PM 35.8 °F 30.9 °F 32.2 °F 87% 30.08 in 10.0 mi NW 5.8 mph - N/A   Mostly Cloudy
8:35 PM 35.8 °F 31.9 °F 32.2 °F 87% 30.09 in 10.0 mi NW 4.6 mph - N/A   Mostly Cloudy
8:55 PM 35.6 °F 31.7 °F 32.4 °F 88% 30.09 in 10.0 mi NNW 4.6 mph - N/A   Overcast
9:15 PM 36.0 °F 30.3 °F 32.0 °F 86% 30.09 in 10.0 mi NW 6.9 mph - N/A   Mostly Cloudy
9:35 PM 36.3 °F 30.1 °F 30.6 °F 80% 30.10 in 10.0 mi NNW 8.1 mph - N/A   Mostly Cloudy
9:55 PM 35.8 °F 28.8 °F 29.8 °F 79% 30.11 in 10.0 mi NW 9.2 mph - N/A   Clear
10:15 PM 35.6 °F 29.2 °F 28.9 °F 77% 30.11 in 10.0 mi NW 8.1 mph - N/A   Clear
10:35 PM 35.1 °F 28.6 °F 28.8 °F 78% 30.12 in 10.0 mi NW 8.1 mph - N/A   Clear
10:55 PM 34.9 °F 27.7 °F 28.2 °F 77% 30.12 in 10.0 mi NNW 9.2 mph - N/A   Clear
11:15 PM 34.2 °F 27.5 °F 28.2 °F 79% 30.12 in 10.0 mi NNW 8.1 mph - N/A   Clear
11:35 PM 34.0 °F 28.0 °F 27.5 °F 77% 30.12 in 10.0 mi NW 6.9 mph - N/A   Clear
11:55 PM 33.8 °F 27.0 °F 26.8 °F 75% 30.12 in 10.0 mi NW 8.1 mph - N/A   Clear